Daviess Cnty AP, Washington,, IN

6:07 AM EST on December 12, 2019 (GMT -0500)
Daviess County

Weather History for KDCY - October, 2019

Change the Weather History Date:

Wednesday, October 9, 2019

  Actual Average (WUND) Record (WUND)
Temperature  
Mean Temperature 58 °F -  
Max Temperature 76 °F - - (-1)
Min Temperature 41 °F - - (-1)
Degree Days  
Heating Degree Days 6    
Growing Degree Days 8 (Base 50)    
Moisture  
Dew Point 49 °F    
Average Humidity 77    
Maximum Humidity 99    
Minimum Humidity 44    
Precipitation  
Precipitation 0.00 in - - ()
Sea Level Pressure  
Sea Level Pressure 30.11 in    
Wind  
Wind Speed 2 mph (SE)    
Max Wind Speed 10 mph    
Max Gust Speed -    
Visibility 10 miles    
Events      
Averages and records for this station are not official NWS values.
T = Trace of Precipitation, MM = Missing Value Source: NWS Daily Summary

Daily Weather History Graph

Daily Weather History Graph

Search for Another Location

Airport or City:

Astronomy

Oct. 09, 2019 Rise Set
Actual Time 7:51 AM EDT 7:19 PM EDT
Civil Twilight 7:25 AM EDT 7:45 PM EDT
Nautical Twilight 6:54 AM EDT 8:16 PM EDT
Astronomical Twilight 6:23 AM EDT 8:47 PM EDT
Moon 5:47 PM EDT (10/9) 3:41 AM EDT (10/9)
Length of Visible Light 12h 20m
Length of Day
11h 27m
Waxing Gibbous, 85% of the Moon is Illuminated
Oct 9
Waxing Gibbous
Oct 13
Full
Oct 21
Last Quarter
Oct 27
New
Nov 4
First Quarter

Hourly Weather History & Observations

Time (EDT) Temp. Dew Point Humidity Pressure Visibility Wind Dir Wind Speed Gust Speed Precip Events Conditions
12:15 AM 48.9 °F 43.7 °F 82% 30.14 in 10.0 mi Calm Calm - N/A   Clear
12:35 AM 47.3 °F 42.4 °F 83% 30.13 in 10.0 mi Calm Calm - N/A   Clear
12:55 AM 45.5 °F 42.3 °F 88% 30.13 in 10.0 mi Calm Calm - N/A   Clear
1:15 AM 45.0 °F 43.0 °F 93% 30.13 in 10.0 mi Calm Calm - N/A   Clear
1:35 AM 45.3 °F 44.8 °F 98% 30.13 in 10.0 mi Calm Calm - N/A   Clear
1:55 AM 41.9 °F 41.0 °F 97% 30.12 in 10.0 mi Calm Calm - N/A   Clear
2:15 AM 43.0 °F 41.4 °F 94% 30.12 in 10.0 mi Calm Calm - N/A   Clear
2:35 AM 43.3 °F 43.2 °F 99% 30.12 in 10.0 mi Calm Calm - N/A   Clear
2:55 AM 43.5 °F 43.2 °F 99% 30.12 in 10.0 mi Calm Calm - N/A   Clear
3:15 AM 41.7 °F 40.3 °F 95% 30.12 in 10.0 mi Calm Calm - N/A   Clear
3:35 AM 41.4 °F 40.3 °F 96% 30.12 in 10.0 mi Calm Calm - N/A   Clear
3:55 AM 42.8 °F 42.6 °F 99% 30.11 in 10.0 mi Calm Calm - N/A   Clear
4:15 AM 43.2 °F 43.0 °F 99% 30.11 in 10.0 mi Calm Calm - N/A   Clear
4:35 AM 43.7 °F 43.3 °F 99% 30.12 in 10.0 mi Calm Calm - N/A   Clear
4:50 AM 44.8 °F 44.6 °F 99% 30.12 in 10.0 mi Calm Calm - N/A   Clear
5:15 AM 42.1 °F 41.7 °F 99% 30.12 in 10.0 mi Calm Calm - N/A   Clear
5:35 AM 41.5 °F 41.2 °F 99% 30.13 in 10.0 mi Calm Calm - N/A   Clear
5:55 AM 42.6 °F 42.4 °F 99% 30.13 in 10.0 mi Calm Calm - N/A   Clear
6:15 AM 42.8 °F 42.6 °F 99% 30.13 in 10.0 mi Calm Calm - N/A   Clear
6:35 AM 41.9 °F 41.7 °F 99% 30.14 in 10.0 mi Calm Calm - N/A   Clear
6:55 AM 41.0 °F 40.8 °F 99% 30.15 in 10.0 mi Calm Calm - N/A   Clear
7:10 AM 42.3 °F 42.1 °F 99% 30.15 in 10.0 mi Calm Calm - N/A   Clear
7:35 AM 41.9 °F 41.7 °F 99% 30.15 in 10.0 mi Calm Calm - N/A   Clear
7:55 AM 42.3 °F 42.1 °F 99% 30.15 in 10.0 mi Calm Calm - N/A   Clear
8:15 AM 41.5 °F 41.4 °F 99% 30.16 in 10.0 mi Calm Calm - N/A   Clear
8:35 AM 44.8 °F 44.6 °F 99% 30.16 in 10.0 mi Calm Calm - N/A   Clear
8:55 AM 48.2 °F 46.4 °F 93% 30.16 in 10.0 mi Calm Calm - N/A   Clear
9:15 AM 50.5 °F 46.0 °F 85% 30.17 in 10.0 mi Calm Calm - N/A   Clear
9:35 AM 53.6 °F 47.7 °F 80% 30.17 in 10.0 mi East 3.5 mph - N/A   Clear
9:55 AM 55.9 °F 49.3 °F 78% 30.17 in 10.0 mi ESE 5.8 mph - N/A   Clear
10:15 AM 58.1 °F 50.7 °F 76% 30.17 in 10.0 mi ESE 6.9 mph - N/A   Clear
10:55 AM 62.4 °F 52.7 °F 70% 30.17 in 10.0 mi East 5.8 mph - N/A   Clear
11:15 AM 64.4 °F 53.1 °F 67% 30.17 in 10.0 mi ESE 4.6 mph - N/A   Clear
11:35 AM 65.7 °F 53.4 °F 65% 30.17 in 10.0 mi ESE 5.8 mph - N/A   Clear
11:55 AM 67.3 °F 53.6 °F 61% 30.16 in 10.0 mi East 3.5 mph - N/A   Clear
12:15 PM 68.9 °F 53.1 °F 57% 30.16 in 10.0 mi East 5.8 mph - N/A   Clear
12:35 PM 69.8 °F 52.0 °F 53% 30.15 in 10.0 mi East 5.8 mph - N/A   Clear
12:55 PM 70.7 °F 50.9 °F 49% 30.15 in 10.0 mi ENE 5.8 mph - N/A   Clear
1:15 PM 71.1 °F 52.2 °F 51% 30.15 in 10.0 mi NE 4.6 mph - N/A   Clear
1:35 PM 71.8 °F 52.3 °F 50% 30.13 in 7.0 mi ESE 5.8 mph - N/A   Clear
1:55 PM 72.3 °F 52.0 °F 49% 30.12 in 10.0 mi ESE 6.9 mph - N/A   Clear
2:15 PM 73.6 °F 52.7 °F 48% 30.11 in 10.0 mi ESE 6.9 mph - N/A   Clear
2:35 PM 74.3 °F 53.2 °F 48% 30.10 in 10.0 mi ESE 5.8 mph - N/A   Clear
2:55 PM 73.9 °F 50.9 °F 44% 30.08 in 10.0 mi SSE 3.5 mph - N/A   Clear
3:15 PM 75.2 °F 52.2 °F 44% 30.08 in 10.0 mi SE 4.6 mph - N/A   Clear
3:35 PM 74.1 °F 51.1 °F 44% 30.08 in 10.0 mi ESE 3.5 mph - N/A   Clear
3:55 PM 75.2 °F 52.2 °F 44% 30.07 in 10.0 mi East 8.1 mph - N/A   Clear
4:15 PM 76.1 °F 52.5 °F 44% 30.06 in 10.0 mi SSE 10.4 mph - N/A   Clear
4:35 PM 75.9 °F 53.2 °F 45% 30.05 in 10.0 mi ESE 8.1 mph - N/A   Clear
4:55 PM 75.6 °F 52.5 °F 45% 30.04 in 10.0 mi ESE 6.9 mph - N/A   Clear
5:15 PM 75.4 °F 54.1 °F 48% 30.04 in 10.0 mi ESE 8.1 mph - N/A   Clear
5:35 PM 74.8 °F 52.9 °F 46% 30.04 in 10.0 mi ESE 9.2 mph - N/A   Clear
5:55 PM 74.5 °F 52.5 °F 46% 30.05 in 10.0 mi SE 10.4 mph - N/A   Clear
6:10 PM 73.8 °F 52.0 °F 46% 30.05 in 10.0 mi SSE 8.1 mph - N/A   Clear
6:35 PM 72.5 °F 52.2 °F 49% 30.06 in 10.0 mi SSE 6.9 mph - N/A   Clear
6:55 PM 69.6 °F 52.3 °F 54% 30.06 in 10.0 mi SSE 4.6 mph - N/A   Clear
7:15 PM 65.7 °F 52.2 °F 62% 30.06 in 10.0 mi SSE 5.8 mph - N/A   Clear
7:35 PM 62.6 °F 52.2 °F 69% 30.07 in 10.0 mi SSE 6.9 mph - N/A   Clear
7:55 PM 61.9 °F 54.0 °F 75% 30.07 in 10.0 mi SE 6.9 mph - N/A   Clear
8:15 PM 60.8 °F 54.7 °F 80% 30.07 in 10.0 mi SE 6.9 mph - N/A   Clear
8:35 PM 61.0 °F 55.6 °F 82% 30.08 in 10.0 mi SSE 6.9 mph - N/A   Clear
8:55 PM 60.4 °F 55.8 °F 85% 30.09 in 10.0 mi SSE 6.9 mph - N/A   Clear
9:15 PM 59.7 °F 55.6 °F 86% 30.10 in 10.0 mi SSE 5.8 mph - N/A   Clear
9:35 PM 57.2 °F 54.7 °F 91% 30.10 in 10.0 mi SE 6.9 mph - N/A   Clear
9:55 PM 56.7 °F 56.5 °F 99% 30.10 in 10.0 mi SE 6.9 mph - N/A   Clear
10:15 PM 55.8 °F 55.6 °F 99% 30.10 in 10.0 mi SE 6.9 mph - N/A   Clear
10:35 PM 55.0 °F 54.7 °F 99% 30.10 in 10.0 mi SE 4.6 mph - N/A   Clear
10:55 PM 54.3 °F 54.0 °F 99% 30.10 in 10.0 mi SE 4.6 mph - N/A   Clear
11:15 PM 54.0 °F 53.6 °F 99% 30.10 in 7.0 mi SE 3.5 mph - N/A   Clear
11:35 PM 53.1 °F 52.7 °F 99% 30.10 in 7.0 mi Calm Calm - N/A   Clear